Wind_Speed
7 8 10 8 6 5 5 6 6 9 9 8 5 4 7 6 8 8 10 8 7 7 8 8 9 8 9 11 13 13 13 12 11 11 10 10 11 13 13 13 12 12 12 12 21 18 16 14 12
7 7 8 5 5 3 4 4 9 10 10 9 6 5 7 7 8 8 9 8 7 7 8 7 8 8 10 11 11 11 11 11 11 10 9 9 9 12 13 15 11 11 12 12 16 14 14 13 11
7 9 7 5 8 8 5 6 9 10 10 9 10 8 7 5 7 8 7 7 7 6 7 7 7 8 9 11 11 10 10 10 9 9 8 9 8 9 10 12 13 10 13 15 15 13 13 12 11
6 10 8 8 9 12 13 6 10 10 9 8 7 9 8 6 6 7 7 7 7 7 7 8 7 6 8 10 10 9 9 9 8 7 8 10 8 8 8 7 9 12 13 18 15 15 14 11 11
3 8 10 2 9 13 15 12 11 11 12 10 9 9 10 7 7 7 8 6 7 7 7 7 7 6 7 9 9 8 8 7 7 6 8 8 8 8 6 6 11 16 18 17 14 13 12 11 11
1 6 12 5 10 12 13 12 13 13 14 12 10 10 10 8 8 8 7 5 6 7 7 7 8 8 9 9 10 9 8 8 7 6 7 10 8 7 7 8 15 18 16 12 11 11 10 9 11
1 4 10 13 16 17 14 14 14 15 14 13 13 11 12 11 8 8 8 5 7 7 8 7 9 9 10 10 10 9 8 8 7 7 8 9 8 8 12 12 14 14 13 11 9 9 9 10 10
2 3 7 7 8 18 16 16 16 19 17 15 14 12 12 13 10 8 8 7 7 7 7 8 8 9 10 10 9 9 8 7 7 7 8 7 11 15 15 13 13 12 11 10 9 10 10 9 10
3 2 4 5 7 21 19 19 18 17 18 18 15 13 12 12 11 7 8 8 7 6 6 7 8 9 9 8 9 9 8 8 6 7 6 7 14 14 13 13 12 11 10 10 11 12 13 12 12
5 3 4 5 8 15 28 22 22 20 19 17 15 12 10 11 12 7 7 7 8 6 6 7 7 8 8 9 8 8 9 7 7 7 5 9 15 15 13 14 13 10 11 12 14 17 18 19 19
6 5 6 6 5 9 32 25 25 24 21 20 19 15 11 12 13 10 7 7 7 7 7 6 8 8 8 10 9 8 9 9 9 9 10 11 10 14 15 15 13 12 13 14 18 20 20 22 24
8 8 9 9 5 14 32 31 28 25 23 20 16 18 16 12 12 11 9 7 7 7 8 8 8 9 8 10 10 9 8 9 10 10 11 11 9 13 16 15 14 14 15 16 18 18 21 22 23
9 8 8 8 14 21 27 31 27 24 21 19 18 15 14 14 12 11 9 9 8 8 9 10 10 11 10 10 9 9 8 9 11 11 12 12 12 18 18 16 14 14 16 17 17 19 21 21 21
11 6 5 8 9 15 30 28 26 24 23 22 20 17 14 14 12 12 10 9 8 7 8 10 10 12 11 10 9 9 9 10 12 13 13 15 18 22 18 16 14 14 17 17 17 20 20 20 21
11 7 5 8 15 26 30 27 28 26 25 24 21 18 14 12 12 10 11 9 9 7 7 9 9 11 12 12 11 10 9 11 12 15 16 19 21 19 17 16 13 13 15 17 17 19 20 20 21
11 8 3 10 14 33 29 25 25 27 26 24 21 19 15 13 11 10 10 9 9 8 5 7 9 10 12 13 11 10 11 12 13 16 17 19 20 18 17 14 13 14 15 16 16 17 19 20 22
12 5 7 7 7 24 22 22 24 29 27 26 23 20 16 15 13 11 11 10 9 8 4 8 10 9 10 11 10 9 10 12 13 14 16 17 17 16 14 13 13 14 15 14 15 16 16 18 22
9 10 11 10 9 12 23 24 27 28 26 25 25 21 19 16 15 13 11 12 9 11 6 6 7 9 9 10 10 10 11 13 13 14 16 16 17 16 14 12 12 15 14 14 14 14 15 16 17
21 11 17 15 12 11 14 23 27 23 26 26 25 23 21 18 16 14 12 12 11 10 10 6 6 8 8 10 11 11 11 14 15 15 14 15 15 14 13 11 11 13 13 13 12 13 15 14 17
23 18 21 14 19 19 18 11 12 20 17 24 26 24 22 19 16 16 14 13 13 11 10 8 7 8 8 8 11 11 10 12 13 14 14 13 13 12 11 9 10 13 11 12 11 12 12 14 15
21 18 22 19 15 14 16 5 7 6 17 27 29 25 24 21 19 18 16 14 14 14 11 9 9 8 8 8 10 11 11 12 13 14 12 11 10 9 9 9 9 11 13 12 10 9 11 11 14
19 24 26 17 24 11 10 4 4 7 8 28 30 26 26 24 22 21 19 16 15 15 14 12 10 9 9 10 10 11 11 11 12 13 14 13 11 9 8 7 9 11 13 11 10 9 9 10 11
27 25 34 16 17 10 9 5 6 9 13 19 26 27 27 27 26 23 21 19 17 16 15 13 13 11 9 9 9 9 11 11 12 12 13 13 11 10 9 9 10 12 14 12 11 9 8 9 10
37 28 23 20 15 16 16 9 13 10 7 17 18 25 27 28 28 27 25 22 19 18 17 16 13 12 11 9 9 9 8 10 10 11 11 11 12 10 9 8 10 11 12 11 11 10 7 7 8
36 30 23 21 15 12 12 6 19 13 10 10 22 27 26 27 30 30 28 25 21 19 18 17 16 13 12 10 9 8 8 7 8 10 10 10 10 10 10 10 10 11 11 10 10 9 8 6 4
36 33 26 15 12 15 21 15 20 11 9 10 6 32 33 29 29 29 29 27 31 22 21 18 16 15 13 11 9 8 8 7 7 8 9 8 9 10 10 10 10 10 10 9 8 8 8 7 6
38 38 31 17 22 18 15 16 25 15 10 8 16 16 17 31 31 30 28 27 29 25 24 22 19 17 15 13 13 11 10 9 8 7 8 9 9 11 11 10 10 10 9 9 9 9 9 9 7
34 32 29 27 19 15 17 18 16 20 13 12 14 13 14 25 36 34 30 28 28 26 25 23 22 21 18 16 16 14 13 12 10 9 7 8 10 9 10 11 11 11 11 10 9 10 10 10 9
42 35 35 26 23 16 22 24 27 21 17 17 16 16 13 14 42 42 32 28 21 26 26 25 23 23 22 21 18 18 16 15 13 12 11 10 10 9 9 9 10 11 11 11 11 11 11 11 11
27 32 27 33 29 24 20 24 20 14 18 19 19 18 21 23 17 42 35 34 36 33 28 24 22 25 25 25 23 21 20 20 19 16 16 14 13 12 11 9 10 10 12 13 12 12 11 12 13
Wind_Direction
5 31 9 26 56 82 113 137 135 126 130 125 119 119 106 102 88 102 93 84 83 83 95 108 125 132 126 123 121 124 125 123 125 115 112 103 102 107 104 104 93 91 84 80 95 94 89 95 99
3 26 338 354 125 116 137 138 150 147 148 139 135 131 114 110 105 104 101 95 86 83 93 103 119 133 135 127 122 121 120 124 119 117 118 114 107 110 111 103 94 101 98 83 88 101 102 97 103
5 15 352 98 156 167 187 182 161 154 160 149 143 139 124 118 111 105 96 94 82 71 85 101 110 130 141 139 136 130 122 119 120 120 128 129 123 104 106 119 126 122 112 110 100 103 96 104 107
12 20 354 82 165 185 190 176 159 152 154 150 151 140 129 124 106 105 96 86 80 77 76 91 100 123 143 142 141 136 130 123 118 118 115 128 123 114 106 113 137 132 121 111 106 106 104 104 110
37 21 25 120 159 176 198 181 163 163 164 163 153 144 138 131 116 110 102 93 80 76 78 97 102 122 139 137 137 137 130 120 121 123 111 121 127 127 118 85 109 124 106 106 112 106 108 113 114
273 358 351 264 168 200 190 179 164 173 166 173 159 153 146 139 132 125 115 112 91 83 85 101 109 125 132 136 136 136 129 127 129 123 118 137 133 136 124 98 95 98 107 113 112 111 113 115 111
119 3 1 334 192 185 187 180 172 174 169 177 164 162 155 144 145 140 133 111 96 96 97 113 123 126 132 136 136 137 130 130 128 124 122 120 137 131 124 118 110 112 114 112 108 106 102 102 114
149 11 3 42 201 189 192 184 181 174 177 178 172 170 164 152 146 146 129 117 94 88 109 119 129 138 138 139 132 130 129 120 121 118 126 131 120 116 117 116 113 106 104 102 95 84 86 98 115
210 308 350 325 339 204 181 186 181 177 177 183 174 173 170 158 138 134 123 111 101 88 110 128 134 141 146 137 133 128 126 121 119 117 143 155 135 124 124 121 118 116 110 95 83 80 83 91 107
210 261 287 304 320 206 176 188 180 174 182 186 175 172 171 158 132 127 101 101 103 95 119 132 141 135 149 148 139 131 123 118 112 115 83 179 154 134 128 124 121 112 101 83 84 85 87 87 98
210 251 267 285 284 212 174 183 182 175 178 189 181 165 166 163 136 134 115 98 103 98 113 124 139 145 141 147 144 139 126 122 124 124 111 125 130 137 139 125 118 106 94 92 95 92 88 87 87
207 239 266 295 234 186 171 186 185 176 178 186 179 165 166 164 140 131 115 104 97 105 106 124 140 147 145 140 141 129 137 129 127 126 119 119 131 146 144 125 113 106 101 100 97 92 89 88 87
209 235 284 296 283 215 174 186 184 177 179 179 173 169 158 158 145 138 129 111 100 99 103 116 133 145 142 140 139 126 126 123 128 128 123 120 121 141 138 127 118 110 110 104 95 92 92 91 93
223 236 266 292 304 188 167 181 182 179 178 179 173 167 167 160 146 138 130 124 111 106 107 117 130 138 138 137 133 128 120 124 127 131 129 119 123 134 134 129 125 118 118 107 98 97 96 96 98
218 224 278 281 271 183 170 172 182 180 180 175 176 167 170 162 148 140 132 127 121 115 117 111 120 133 141 136 126 118 113 121 131 135 127 125 130 137 132 131 123 115 119 110 105 106 101 101 104
209 241 247 298 280 178 173 184 182 181 182 178 182 169 175 168 157 151 141 134 125 117 136 121 122 132 140 135 123 113 106 113 123 137 133 130 132 137 134 126 119 116 116 113 108 110 106 108 112
205 180 237 296 177 182 176 189 186 183 184 182 185 183 181 171 165 161 155 144 133 124 155 144 123 132 138 148 134 120 114 116 121 134 138 135 139 137 134 123 116 122 122 116 113 114 108 112 118
233 228 224 239 249 176 184 182 184 184 187 191 188 186 180 183 173 174 168 150 144 135 138 163 139 123 130 143 143 135 129 127 131 131 138 140 144 142 136 126 121 130 130 126 120 119 115 114 120
185 198 229 249 252 179 153 175 175 183 189 201 195 186 189 187 184 187 175 161 151 147 152 164 169 141 129 144 148 138 140 135 135 138 140 143 146 147 137 130 128 137 140 132 121 120 124 122 127
201 199 214 199 230 185 186 180 191 215 215 186 191 191 190 193 193 192 192 174 159 156 161 166 177 162 148 146 158 152 143 138 140 139 141 148 149 145 143 142 135 137 145 134 130 128 129 132 131
202 209 235 241 225 217 234 175 194 219 235 198 192 191 190 193 198 202 196 188 177 165 168 170 182 176 159 146 159 161 156 152 150 149 148 153 154 153 153 153 149 146 155 146 138 130 131 141 139
209 210 220 245 230 265 249 263 212 261 285 223 191 191 196 198 202 206 204 190 190 181 177 182 179 181 167 160 162 168 166 165 161 157 156 157 158 155 151 156 165 161 157 152 138 136 142 143 143
210 203 205 141 216 238 193 259 274 273 269 199 190 188 202 202 203 206 210 201 196 197 186 191 192 188 183 171 162 161 170 178 182 170 167 162 160 155 143 145 160 170 162 157 147 139 143 144 149
212 212 221 230 211 236 258 221 285 294 232 255 232 195 205 208 206 207 208 210 204 201 201 195 200 199 188 190 177 172 172 182 186 192 188 177 164 153 142 135 148 166 168 166 162 155 140 138 152
209 209 219 227 225 235 233 257 259 285 255 323 231 200 210 214 208 212 208 210 211 209 211 209 206 203 199 200 200 180 184 186 185 190 198 200 188 173 161 157 160 168 177 182 186 179 177 164 155
210 209 208 212 219 245 259 258 261 254 285 284 259 195 201 214 218 216 210 194 221 220 211 215 218 211 205 207 217 214 200 194 193 186 193 197 201 194 188 182 179 181 186 188 196 201 204 202 194
213 211 206 216 203 231 227 246 249 249 248 254 264 193 214 210 216 218 215 213 218 215 216 214 220 223 214 210 220 221 226 210 201 200 198 188 199 203 197 198 199 199 200 202 206 212 215 217 220
205 218 212 216 195 232 255 246 250 236 230 242 242 253 230 217 209 216 213 211 219 222 222 221 221 227 227 218 218 227 225 229 217 213 209 213 197 191 209 200 199 213 209 216 219 220 224 227 227
218 211 207 214 209 233 216 252 232 234 219 218 238 232 256 243 222 218 208 210 221 227 227 224 225 229 230 232 225 220 232 233 229 225 223 223 221 209 205 215 209 207 215 219 223 227 227 232 236
218 221 212 206 206 218 246 232 262 186 227 230 231 219 243 263 284 207 201 208 205 222 227 226 229 232 233 236 238 232 222 230 230 231 227 226 230 233 218 220 220 227 229 228 227 232 232 237 241
Height
5892 5891 5890 5891 5893 5892 5892 5893 5893 5894 5894 5894 5895 5894 5893 5892 5891 5894 5891 5891 5890 5890 5890 5891 5891 5891 5891 5891 5892 5893 5893 5893 5893 5893 5894 5894 5895 5895 5895 5895 5896 5896 5896 5897 5897 5897 5898 5900 5901
5893 5892 5891 5890 5893 5893 5893 5893 5894 5894 5895 5895 5896 5896 5895 5894 5894 5893 5892 5892 5891 5892 5891 5891 5892 5893 5893 5893 5894 5896 5896 5896 5896 5895 5896 5896 5897 5898 5898 5898 5899 5900 5900 5899 5899 5901 5900 5901 5903
5893 5892 5891 5889 5891 5894 5893 5894 5895 5896 5896 5897 5896 5897 5897 5896 5896 5895 5894 5893 5893 5894 5893 5893 5893 5895 5896 5896 5896 5897 5898 5899 5899 5899 5899 5899 5899 5900 5900 5901 5901 5902 5903 5904 5903 5903 5903 5904 5905
5893 5893 5892 5890 5892 5894 5896 5895 5897 5897 5898 5900 5899 5898 5898 5898 5897 5897 5896 5895 5896 5895 5894 5894 5894 5895 5896 5897 5897 5898 5899 5900 5901 5901 5901 5902 5902 5902 5902 5903 5903 5903 5905 5905 5906 5906 5906 5907 5908
5893 5893 5893 5891 5893 5896 5895 5896 5897 5898 5900 5900 5900 5900 5899 5899 5899 5898 5898 5897 5898 5897 5896 5896 5897 5897 5898 5899 5899 5899 5901 5902 5903 5903 5904 5904 5904 5904 5904 5905 5904 5904 5906 5907 5908 5908 5909 5910 5910
5894 5893 5893 5893 5893 5893 5895 5896 5897 5899 5900 5901 5902 5902 5901 5901 5901 5900 5899 5899 5899 5899 5899 5900 5899 5899 5900 5901 5901 5901 5903 5904 5904 5905 5905 5905 5906 5906 5906 5907 5907 5908 5909 5910 5910 5911 5912 5912 5912
5893 5894 5891 5891 5892 5893 5894 5896 5897 5900 5902 5903 5903 5903 5903 5902 5902 5901 5900 5901 5901 5902 5902 5902 5902 5902 5902 5903 5903 5904 5904 5905 5906 5907 5907 5907 5907 5908 5908 5910 5910 5911 5912 5912 5913 5914 5914 5914 5914
5893 5893 5891 5892 5893 5893 5894 5896 5899 5899 5902 5904 5904 5904 5905 5903 5903 5903 5902 5903 5902 5903 5904 5904 5905 5904 5905 5905 5906 5906 5907 5907 5908 5908 5909 5909 5910 5910 5911 5912 5913 5913 5914 5915 5916 5916 5916 5916 5917
5892 5893 5892 5892 5892 5891 5894 5895 5898 5901 5902 5904 5905 5905 5906 5905 5904 5905 5905 5904 5903 5904 5905 5906 5906 5907 5908 5907 5908 5908 5909 5909 5909 5910 5910 5910 5912 5913 5915 5915 5916 5917 5917 5918 5918 5918 5918 5918 5919
5891 5892 5892 5891 5890 5890 5894 5895 5897 5901 5903 5905 5906 5906 5907 5908 5905 5907 5907 5907 5906 5906 5907 5907 5907 5909 5909 5909 5910 5910 5911 5911 5911 5911 5911 5911 5912 5914 5916 5917 5919 5920 5920 5920 5920 5921 5922 5921 5922
5891 5891 5890 5889 5888 5888 5891 5894 5896 5899 5902 5904 5906 5906 5908 5909 5907 5908 5909 5909 5908 5909 5908 5909 5909 5910 5910 5911 5911 5912 5913 5913 5913 5913 5913 5914 5915 5916 5918 5920 5922 5923 5923 5924 5924 5925 5926 5927 5926
5891 5890 5888 5888 5886 5885 5890 5893 5896 5898 5901 5905 5908 5907 5908 5910 5909 5910 5910 5911 5911 5911 5911 5911 5911 5912 5912 5913 5914 5914 5915 5915 5915 5915 5915 5916 5917 5918 5920 5923 5924 5925 5926 5928 5928 5929 5930 5930 5931
5890 5889 5887 5887 5886 5884 5885 5892 5895 5899 5903 5906 5909 5910 5910 5910 5910 5911 5912 5912 5913 5913 5914 5913 5913 5914 5915 5915 5916 5916 5917 5918 5917 5917 5918 5919 5919 5921 5923 5926 5927 5929 5930 5931 5932 5933 5933 5934 5935
5887 5888 5887 5884 5885 5885 5887 5890 5896 5899 5902 5906 5909 5910 5910 5910 5911 5912 5913 5914 5915 5916 5916 5916 5916 5916 5917 5917 5917 5918 5919 5919 5919 5920 5920 5921 5922 5925 5927 5928 5930 5932 5933 5935 5936 5936 5937 5938 5939
5886 5888 5886 5884 5884 5884 5888 5891 5895 5898 5902 5906 5909 5909 5912 5912 5912 5914 5915 5916 5916 5917 5918 5918 5918 5918 5919 5920 5920 5921 5921 5921 5921 5922 5923 5924 5926 5929 5930 5932 5934 5935 5936 5937 5939 5939 5940 5942 5944
5885 5886 5885 5882 5879 5881 5887 5890 5894 5899 5902 5905 5908 5909 5912 5913 5913 5914 5916 5918 5918 5918 5920 5920 5921 5920 5921 5922 5922 5923 5923 5923 5924 5925 5926 5927 5929 5931 5933 5935 5937 5938 5940 5941 5943 5943 5944 5946 5947
5884 5886 5884 5884 5882 5883 5887 5890 5894 5897 5901 5904 5907 5909 5912 5913 5914 5915 5917 5919 5919 5920 5922 5923 5923 5922 5923 5924 5925 5926 5926 5926 5927 5928 5929 5931 5932 5934 5936 5939 5940 5942 5944 5945 5947 5948 5949 5950 5950
5885 5885 5883 5880 5883 5884 5886 5889 5892 5897 5900 5903 5906 5909 5911 5913 5913 5915 5917 5919 5920 5921 5923 5925 5925 5925 5925 5927 5927 5928 5929 5929 5930 5931 5933 5934 5936 5937 5940 5941 5943 5945 5946 5948 5950 5951 5952 5953 5956
5883 5885 5882 5884 5883 5885 5881 5889 5895 5897 5900 5901 5905 5907 5910 5912 5914 5916 5917 5920 5921 5922 5924 5926 5927 5927 5927 5928 5929 5930 5931 5931 5932 5933 5936 5937 5938 5940 5942 5943 5946 5947 5949 5951 5952 5953 5954 5956 5957
5880 5882 5880 5874 5882 5882 5884 5889 5893 5895 5894 5898 5904 5906 5910 5912 5915 5916 5918 5919 5921 5923 5925 5927 5929 5928 5929 5930 5931 5933 5935 5934 5935 5937 5938 5941 5942 5943 5945 5947 5948 5949 5953 5954 5955 5956 5956 5958 5960
5877 5880 5877 5878 5879 5881 5883 5887 5889 5891 5892 5895 5899 5903 5908 5911 5915 5917 5918 5919 5921 5923 5926 5928 5930 5930 5930 5931 5933 5935 5936 5936 5937 5939 5940 5943 5945 5946 5948 5949 5950 5952 5954 5956 5958 5958 5959 5960 5961
5875 5878 5873 5871 5882 5882 5881 5884 5886 5888 5890 5893 5897 5901 5907 5911 5913 5916 5918 5919 5921 5923 5926 5928 5930 5931 5933 5933 5935 5936 5937 5939 5940 5940 5942 5944 5946 5948 5949 5951 5952 5954 5956 5958 5959 5960 5961 5962 5964
5870 5869 5874 5858 5879 5880 5879 5885 5886 5886 5888 5888 5895 5898 5905 5910 5912 5915 5917 5919 5921 5923 5926 5928 5930 5932 5934 5935 5936 5938 5939 5941 5942 5944 5945 5945 5947 5948 5951 5952 5954 5955 5958 5959 5961 5962 5964 5965 5966
5861 5870 5871 5874 5878 5880 5880 5883 5885 5885 5886 5888 5892 5895 5900 5906 5910 5913 5915 5918 5921 5923 5925 5928 5931 5933 5935 5937 5938 5940 5941 5942 5945 5946 5948 5948 5948 5950 5952 5954 5955 5958 5960 5961 5962 5963 5965 5967 5968
5861 5867 5870 5875 5878 5885 5880 5885 5882 5883 5886 5886 5890 5894 5899 5904 5907 5909 5914 5918 5922 5922 5926 5928 5931 5933 5935 5937 5939 5941 5942 5944 5946 5947 5948 5950 5950 5950 5952 5954 5956 5959 5961 5963 5964 5965 5966 5968 5969
5859 5864 5869 5875 5883 5887 5883 5886 5879 5885 5886 5888 5889 5891 5896 5900 5905 5908 5911 5917 5920 5921 5924 5928 5931 5933 5935 5937 5940 5942 5943 5945 5946 5947 5948 5950 5952 5952 5953 5954 5956 5959 5961 5963 5965 5965 5966 5968 5969
5855 5857 5867 5873 5876 5876 5879 5879 5883 5884 5886 5887 5889 5892 5895 5898 5901 5906 5909 5913 5917 5920 5922 5925 5929 5932 5934 5937 5939 5941 5944 5944 5946 5947 5949 5949 5950 5952 5953 5955 5957 5958 5960 5962 5963 5965 5967 5968 5969
5849 5859 5865 5869 5875 5879 5879 5873 5877 5881 5884 5884 5887 5890 5893 5895 5898 5901 5906 5910 5913 5917 5919 5923 5926 5930 5932 5935 5937 5940 5941 5944 5945 5946 5948 5950 5950 5951 5953 5954 5956 5958 5959 5960 5962 5963 5966 5967 5968
5845 5849 5857 5869 5875 5873 5881 5878 5870 5877 5881 5882 5883 5887 5889 5889 5893 5893 5900 5908 5912 5913 5917 5919 5923 5926 5929 5932 5934 5937 5940 5941 5943 5945 5946 5948 5950 5950 5951 5953 5954 5956 5958 5959 5961 5962 5963 5964 5966
5840 5846 5854 5860 5866 5870 5870 5866 5850 5864 5874 5879 5881 5882 5887 5886 5882 5882 5895 5904 5909 5911 5913 5915 5918 5922 5925 5928 5931 5934 5936 5939 5941 5942 5944 5946 5947 5949 5950 5951 5954 5955 5957 5958 5959 5960 5962 5963 5964